Content
SEND FEEDBACK

Daily
Averages
Monthly
Summary
United States of America

PETALUMA, CALIFORNIA


Home > North America > United States > California
Elevation: 1 foot     Latitude: 38 14N     Longitude: 122 38W

WEATHER
 
SELECT A DAY
Number of Records: 76,778;   Date Range: 4/19/11 - 10/22/14
 
SHARE

PRINT THIS DATA

[ ← Previous Day ]
WEATHER ALMANAC - JULY 1, 2013
[ Next Day → ]
[ °C ]   °F
We're sorry. There is no daily almanac available for Petaluma, California on July 1, 2013.
WEATHER BY HOUR - JULY 1, 2013
[ °C ]   °F
Local TimeTemperatureDewpointHumidityBarometerVisibilityWind DirectionWind SpeedGust SpeedPrecipitationEventsConditions
12:35 AM57.2 °F53.6 °F88 %29.82 in10.0 miNorth (350°)4.6 mphClear
12:55 AM55.4 °F53.6 °F94 %29.82 in10.0 miNNW (340°)3.5 mphClear
1:15 AM55.4 °F53.6 °F94 %29.82 in10.0 miCalmClear
1:35 AM55.4 °F53.6 °F94 %29.83 in10.0 miCalmClear
1:55 AM55.4 °F53.6 °F94 %29.83 in10.0 miCalmClear
2:15 AM55.4 °F53.6 °F94 %29.83 in10.0 miNW (320°)3.5 mphClear
2:35 AM55.4 °F53.6 °F94 %29.83 in10.0 miCalmClear
2:55 AM55.4 °F53.6 °F94 %29.83 in10.0 miNW (320°)3.5 mphClear
3:15 AM55.4 °F53.6 °F94 %29.83 in10.0 miNNW (330°)4.6 mphScattered Clouds
3:35 AM55.4 °F53.6 °F94 %29.84 in10.0 miNNW (340°)3.5 mphScattered Clouds
3:55 AM53.6 °F53.6 °F100 %29.84 in10.0 miNW (310°)3.5 mphMostly Cloudy
4:15 AM53.6 °F53.6 °F100 %29.83 in10.0 miNNW (330°)3.5 mphOvercast
4:35 AM53.6 °F53.6 °F100 %29.84 in10.0 miNorth (350°)3.5 mphOvercast
4:55 AM55.4 °F53.6 °F94 %29.84 in10.0 miCalmMostly Cloudy
5:15 AM55.4 °F53.6 °F94 %29.84 in10.0 miCalmScattered Clouds
5:35 AM55.4 °F53.6 °F94 %29.84 in10.0 miCalmPartly Cloudy
5:55 AM55.4 °F53.6 °F94 %29.84 in10.0 miWest (280°)3.5 mphClear
6:15 AM53.6 °F51.8 °F94 %29.84 in10.0 miCalmClear
6:35 AM53.6 °F53.6 °F100 %29.84 in10.0 miCalmClear
6:55 AM55.4 °F53.6 °F94 %29.84 in10.0 miWNW (300°)3.5 mphClear
7:15 AM57.2 °F55.4 °F94 %29.85 in10.0 miWNW (300°)3.5 mphClear
7:35 AM57.2 °F55.4 °F94 %29.85 in10.0 miCalmClear
7:55 AM59.0 °F55.4 °F88 %29.84 in10.0 miCalmClear
8:15 AM62.6 °F55.4 °F77 %29.85 in10.0 miCalmClear
8:35 AM64.4 °F55.4 °F73 %29.85 in10.0 miCalmClear
8:55 AM66.2 °F55.4 °F68 %29.85 in10.0 miCalmClear
9:15 AM68.0 °F55.4 °F64 %29.85 in10.0 miCalmClear
9:35 AM71.6 °F55.4 °F57 %29.84 in10.0 miSSE (150°)3.5 mphClear
9:55 AM73.4 °F55.4 °F53 %29.84 in10.0 miSSE (150°)3.5 mphClear
10:15 AM75.2 °F55.4 °F50 %29.84 in10.0 miCalmClear
10:35 AM77.0 °F57.2 °F50 %29.85 in10.0 miCalmClear
10:55 AM78.8 °F59.0 °F51 %29.85 in10.0 miNNW (330°)3.5 mphClear
11:15 AM82.4 °F59.0 °F45 %29.85 in10.0 miWest (280°)4.6 mphClear
11:35 AM84.2 °F59.0 °F42 %29.85 in10.0 miNNE (20°)3.5 mphClear
11:55 AM86.0 °F59.0 °F40 %29.85 in10.0 miCalmClear
12:15 PM89.6 °F62.6 °F40 %29.85 in10.0 miCalmClear
12:35 PM91.4 °F59.0 °F34 %29.85 in10.0 miNW (310°)3.5 mphClear
12:55 PM93.2 °F59.0 °F32 %29.84 in10.0 miWest (270°)8.1 mphClear
1:15 PM95.0 °F59.0 °F30 %29.84 in10.0 miWNW (290°)8.1 mphClear
1:35 PM93.2 °F59.0 °F32 %29.84 in10.0 miWest (270°)12.7 mphClear
1:55 PM93.2 °F59.0 °F32 %29.84 in10.0 miWest (280°)12.7 mphClear
2:15 PM93.2 °F59.0 °F32 %29.84 in10.0 miWNW (300°)11.5 mphClear
2:35 PM93.2 °F57.2 °F30 %29.83 in10.0 miNW (310°)9.2 mphClear
2:55 PM91.4 °F59.0 °F34 %29.84 in10.0 miNW (310°)9.2 mph16.1 mphClear
3:15 PM89.6 °F59.0 °F36 %29.84 in10.0 miNNW (330°)10.4 mphClear
3:35 PM86.0 °F59.0 °F40 %29.84 in10.0 miNW (310°)6.9 mphClear
3:55 PM84.2 °F57.2 °F40 %29.84 in10.0 miNW (310°)6.9 mphClear
4:15 PM84.2 °F59.0 °F42 %29.84 in10.0 miWNW (300°)10.4 mphClear
4:35 PM82.4 °F59.0 °F45 %29.83 in10.0 miNW (310°)5.8 mphClear
4:55 PM82.4 °F57.2 °F42 %29.83 in10.0 miWNW (300°)9.2 mphClear
5:15 PM80.6 °F57.2 °F45 %29.83 in10.0 miWNW (300°)9.2 mphClear
5:35 PM80.6 °F57.2 °F45 %29.83 in10.0 miNW (310°)6.9 mphClear
5:55 PM78.8 °F57.2 °F47 %29.83 in10.0 miNW (310°)5.8 mphClear
6:15 PM78.8 °F57.2 °F47 %29.83 in10.0 miNW (310°)4.6 mphClear
6:35 PM77.0 °F57.2 °F50 %29.82 in10.0 miNW (320°)6.9 mphClear
6:55 PM75.2 °F57.2 °F53 %29.83 in10.0 miNW (310°)5.8 mphClear
7:15 PM75.2 °F57.2 °F53 %29.83 in10.0 miNW (310°)6.9 mphClear
7:35 PM73.4 °F55.4 °F53 %29.83 in10.0 miNW (310°)4.6 mphClear
7:55 PM69.8 °F55.4 °F60 %29.83 in10.0 miNW (320°)6.9 mphClear
8:15 PM66.2 °F55.4 °F68 %29.83 in10.0 miWNW (300°)8.1 mphClear
8:35 PM64.4 °F53.6 °F68 %29.83 in10.0 miWNW (300°)8.1 mphClear
8:55 PM64.4 °F53.6 °F68 %29.84 in10.0 miWNW (300°)6.9 mphClear
9:15 PM62.6 °F53.6 °F72 %29.85 in10.0 miNW (320°)3.5 mphClear
9:35 PM62.6 °F53.6 °F72 %29.85 in10.0 miNW (320°)4.6 mphClear
9:55 PM60.8 °F53.6 °F77 %29.85 in10.0 miNNW (340°)6.9 mphClear
10:15 PM60.8 °F53.6 °F77 %29.86 in10.0 miCalmClear
10:35 PM60.8 °F55.4 °F82 %29.84 in10.0 miNW (310°)4.6 mphClear
10:55 PM59.0 °F55.4 °F88 %29.86 in10.0 miNNW (340°)3.5 mphClear
11:15 PM59.0 °F55.4 °F88 %29.86 in10.0 miNNW (330°)3.5 mphClear
11:35 PM60.8 °F55.4 °F82 %29.86 in7.0 miWest (280°)3.5 mphClear
11:55 PM60.8 °F55.4 °F82 %29.85 in10.0 miNNW (330°)4.6 mphClear
Hourly data recorded from KO69, located miles away from Petaluma, California







STORIES FROM OUR PARTNERS